Location: Unspecified
(0.0000°N, 0.0000°E)
Time: 13:27:10
(UTC+00:00)

A-11 Canister half - Pass Details

Date: 19 June 2024
Orbit: 1515 x 1684 km, 47.2° (Epoch: 14 May)

Event Time Altitude Azimuth Distance (km) Brightness Sun altitude
Rises 05:03:50 0° 292° (WNW) 4,666 11.1 -13.2°
Reaches altitude 10° 05:07:35 10° 280° (W) 3,674 10.5 -12.3°
Maximum altitude 05:14:45 25° 228° (SW) 2,666 9.7 -10.7°
Drops below altitude 10° 05:21:59 10° 176° (S) 3,686 10.8 -9.0°
Sets 05:25:48 0° 163° (SSE) 4,685 11.5 -8.2°
